User: anonymous   Login
Location: Franzen
(48.6167°N, 15.3833°E)
Time: 03:55:48
(UTC+00:00)
Language:

Meteor 1-4 Rocket - Orbit

View from above orbital plane
View from above orbital plane
View from above satellite
View from above satellite

Ground track
Ground track

The orbit data is extracted from the following two-line orbital elements,

1 04394U 70037B   21164.82769141  .00001052  00000-0  33546-4 0  9992
2 04394  81.2418  99.8813 0037871 174.8446 185.3189 15.30802067788037
Epoch (UTC): 13 June 2021 19:51:52
Eccentricity: 0.0037871
inclination: 81.2418°
perigee height: 447 km
apogee height: 499 km
right ascension of ascending node: 99.8813°
argument of perigee: 174.8446°
revolutions per day: 15.30802067
mean anomaly at epoch: 185.3189°
orbit number at epoch: 78803

The dashed part of the orbit path shows where the satellite is in the earth's shadow,  

DLR